| time (UTC) | temp C | wind direction | speed KPH | gust KPH | rain 1hr cm | rain 24hr cm | rain mn cm | humidity % | barometer mb |
| 20260906052358 | 24 | 74 | 0.0 | 0.0 | 0.00 | 0.00 | 0.00 | 60 | 1014.5 |
| 20260906051856 | 24 | 74 | 0.0 | 0.0 | 0.00 | 0.00 | 0.00 | 60 | 1014.6 |
| 20260906050858 | 24 | 74 | 0.0 | 0.0 | 0.00 | 0.00 | 0.00 | 60 | 1014.6 |
| 20260906050352 | 24 | 74 | 0.0 | 0.0 | 0.00 | 0.00 | 0.00 | 60 | 1014.7 |
| 20260906045848 | 24 | 74 | 0.0 | 0.0 | 0.00 | 0.00 | 0.00 | 59 | 1014.6 |
| 20260906045346 | 24 | 74 | 0.0 | 0.0 | 0.00 | 0.00 | 0.00 | 59 | 1014.7 |
| 20260906044341 | 24 | 74 | 0.0 | 0.0 | 0.00 | 0.00 | 0.00 | 59 | 1014.6 |
| 20260906043839 | 25 | 74 | 0.0 | 0.0 | 0.00 | 0.00 | 0.00 | 59 | 1014.7 |
| 20260906043337 | 25 | 74 | 0.0 | 0.0 | 0.00 | 0.00 | 0.00 | 58 | 1014.6 |
| 20260906042835 | 25 | 74 | 0.0 | 0.0 | 0.00 | 0.00 | 0.00 | 59 | 1014.6 |
| 20260906042333 | 25 | 74 | 0.0 | 0.0 | 0.00 | 0.00 | 0.00 | 58 | 1014.6 |
| 20260906041833 | 25 | 74 | 0.0 | 0.0 | 0.00 | 0.00 | 0.00 | 58 | 1014.5 |
| 20260906041333 | 25 | 74 | 0.0 | 0.0 | 0.00 | 0.00 | 0.00 | 58 | 1014.6 |
| 20260906040833 | 25 | 74 | 0.0 | 0.0 | 0.00 | 0.00 | 0.00 | 58 | 1014.6 |
| 20260906040329 | 25 | 74 | 0.0 | 0.0 | 0.00 | 0.00 | 0.00 | 58 | 1014.5 |
| 20260906034828 | 25 | 74 | 0.0 | 0.0 | 0.00 | 0.00 | 0.00 | 58 | 1014.1 |
| 20260906034328 | 25 | 74 | 0.0 | 0.0 | 0.00 | 0.00 | 0.00 | 58 | 1014.0 |
| 20260906033829 | 25 | 74 | 0.0 | 0.0 | 0.00 | 0.00 | 0.00 | 57 | 1014.0 |
| 20260906033329 | 25 | 74 | 0.0 | 0.0 | 0.00 | 0.00 | 0.00 | 57 | 1014.1 |
| 20260906032834 | 25 | 74 | 0.0 | 0.0 | 0.00 | 0.00 | 0.00 | 57 | 1014.1 |
| 20260906032322 | 26 | 74 | 0.0 | 0.0 | 0.00 | 0.00 | 0.00 | 57 | 1014.1 |
| 20260906031816 | 26 | 74 | 0.0 | 0.0 | 0.00 | 0.00 | 0.00 | 57 | 1014.2 |
| 20260906031310 | 26 | 74 | 0.0 | 0.0 | 0.00 | 0.00 | 0.00 | 57 | 1014.1 |
| 20260906030803 | 26 | 74 | 0.0 | 0.0 | 0.00 | 0.00 | 0.00 | 57 | 1014.1 |
| 20260906030308 | 26 | 74 | 0.0 | 0.0 | 0.00 | 0.00 | 0.00 | 56 | 1014.1 |
| 20260906024801 | 26 | 67 | 0.0 | 0.0 | 0.00 | 0.00 | 0.00 | 56 | 1013.9 |
| 20260906023801 | 26 | 67 | 0.0 | 0.0 | 0.00 | 0.00 | 0.00 | 56 | 1013.6 |
| 20260906023301 | 26 | 67 | 0.0 | 0.0 | 0.00 | 0.00 | 0.00 | 55 | 1013.6 |
| 20260906022801 | 26 | 67 | 0.0 | 0.0 | 0.00 | 0.00 | 0.00 | 55 | 1013.9 |
| 20260906021259 | 26 | 67 | 0.0 | 0.0 | 0.00 | 0.00 | 0.00 | 54 | 1013.8 |
| 20260906020759 | 26 | 67 | 0.0 | 0.0 | 0.00 | 0.00 | 0.00 | 54 | 1013.8 |
| 20260906020256 | 26 | 67 | 0.0 | 0.0 | 0.00 | 0.00 | 0.00 | 54 | 1013.8 |
| 20260906015755 | 26 | 67 | 0.0 | 0.0 | 0.00 | 0.00 | 0.00 | 54 | 1013.9 |
| 20260906015301 | 26 | 67 | 0.0 | 0.0 | 0.00 | 0.00 | 0.00 | 54 | 1013.9 |
| 20260906014754 | 27 | 67 | 0.0 | 0.0 | 0.00 | 0.00 | 0.00 | 54 | 1013.9 |
| 20260906013759 | 27 | 67 | 0.0 | 0.0 | 0.00 | 0.00 | 0.00 | 53 | 1014.0 |
| 20260906013255 | 27 | 67 | 0.0 | 0.0 | 0.00 | 0.00 | 0.00 | 53 | 1014.0 |
| 20260906012754 | 27 | 67 | 0.0 | 0.0 | 0.00 | 0.00 | 0.00 | 52 | 1013.9 |
| 20260906012250 | 27 | 67 | 0.0 | 0.0 | 0.00 | 0.00 | 0.00 | 52 | 1013.8 |
| 20260906011247 | 27 | 67 | 0.0 | 1.6 | 0.00 | 0.00 | 0.00 | 51 | 1013.6 |
| 20260906010743 | 27 | 67 | 0.0 | 3.2 | 0.00 | 0.00 | 0.00 | 51 | 1013.6 |
| 20260906010242 | 27 | 67 | 0.0 | 3.2 | 0.00 | 0.00 | 0.00 | 51 | 1013.3 |
| 20260906005740 | 28 | 67 | 0.0 | 1.6 | 0.00 | 0.00 | 0.00 | 51 | 1013.3 |
| 20260906005239 | 28 | 67 | 0.0 | 1.6 | 0.00 | 0.00 | 0.00 | 50 | 1013.4 |
| 20260906004736 | 28 | 67 | 0.0 | 1.6 | 0.00 | 0.00 | 0.00 | 50 | 1013.3 |
| 20260906004234 | 28 | 67 | 0.0 | 1.6 | 0.00 | 0.00 | 0.00 | 49 | 1013.3 |
| 20260906003732 | 28 | 67 | 0.0 | 1.6 | 0.00 | 0.00 | 0.00 | 49 | 1013.2 |
| 20260906003230 | 28 | 67 | 1.6 | 4.8 | 0.00 | 0.00 | 0.00 | 48 | 1013.4 |
| 20260906002728 | 28 | 67 | 1.6 | 6.4 | 0.00 | 0.00 | 0.00 | 48 | 1013.3 |
| 20260906002228 | 28 | 65 | 1.6 | 6.4 | 0.00 | 0.00 | 0.00 | 48 | 1013.1 |
| 20260906001728 | 29 | 72 | 0.0 | 3.2 | 0.00 | 0.00 | 0.00 | 48 | 1013.2 |
| 20260906001236 | 29 | 72 | 0.0 | 0.0 | 0.00 | 0.00 | 0.00 | 47 | 1013.2 |
| 20260906000241 | 30 | 72 | 0.0 | 1.6 | 0.00 | 0.00 | 0.00 | 47 | 1013.1 |
| 20260905235734 | 30 | 72 | 0.0 | 3.2 | 0.00 | 0.00 | 0.00 | 46 | 1013.3 |
| 20260905235229 | 30 | 72 | 1.6 | 6.4 | 0.00 | 0.00 | 0.00 | 45 | 1013.6 |
| 20260905234726 | 30 | 72 | 1.6 | 6.4 | 0.00 | 0.00 | 0.00 | 45 | 1013.6 |
| 20260905234217 | 30 | 71 | 3.2 | 6.4 | 0.00 | 0.00 | 0.00 | 44 | 1013.9 |
| 20260905233715 | 31 | 74 | 1.6 | 6.4 | 0.00 | 0.00 | 0.00 | 44 | 1013.8 |
| 20260905232708 | 31 | 255 | 0.0 | 6.4 | 0.00 | 0.00 | 0.00 | 44 | 1013.6 |
| 20260905232208 | 31 | 255 | 0.0 | 6.4 | 0.00 | 0.00 | 0.00 | 43 | 1013.6 |
| 20260905231708 | 32 | 297 | 0.0 | 0.0 | 0.00 | 0.00 | 0.00 | 45 | 1013.6 |
| 20260905231204 | 32 | 297 | 0.0 | 0.0 | 0.00 | 0.00 | 0.00 | 44 | 1013.8 |
| 20260905230702 | 32 | 297 | 0.0 | 0.0 | 0.00 | 0.00 | 0.00 | 43 | 1013.5 |
| 20260905230202 | 32 | 297 | 0.0 | 1.6 | 0.00 | 0.00 | 0.00 | 43 | 1013.5 |
| 20260905225701 | 32 | 297 | 0.0 | 3.2 | 0.00 | 0.00 | 0.00 | 41 | 1013.5 |
| 20260905225201 | 32 | 315 | 1.6 | 4.8 | 0.00 | 0.00 | 0.00 | 41 | 1013.5 |
| 20260905224702 | 32 | 292 | 0.0 | 4.8 | 0.00 | 0.00 | 0.00 | 41 | 1013.3 |
| 20260905224200 | 32 | 277 | 1.6 | 3.2 | 0.00 | 0.00 | 0.00 | 41 | 1013.3 |
| 20260905223701 | 32 | 277 | 1.6 | 9.7 | 0.00 | 0.00 | 0.00 | 40 | 1013.5 |
| 20260905223201 | 32 | 279 | 1.6 | 9.7 | 0.00 | 0.00 | 0.00 | 40 | 1013.4 |
| 20260905222701 | 32 | 328 | 1.6 | 4.8 | 0.00 | 0.00 | 0.00 | 40 | 1013.4 |
| 20260905222201 | 32 | 309 | 1.6 | 4.8 | 0.00 | 0.00 | 0.00 | 40 | 1013.5 |
| 20260905221701 | 32 | 304 | 1.6 | 4.8 | 0.00 | 0.00 | 0.00 | 40 | 1013.4 |
| 20260905221202 | 32 | 321 | 3.2 | 9.7 | 0.00 | 0.00 | 0.00 | 39 | 1013.4 |
| 20260905220659 | 32 | 315 | 3.2 | 9.7 | 0.00 | 0.00 | 0.00 | 39 | 1013.4 |
| 20260905220151 | 33 | 292 | 1.6 | 6.4 | 0.00 | 0.00 | 0.00 | 39 | 1013.4 |
| 20260905215646 | 33 | 341 | 1.6 | 4.8 | 0.00 | 0.00 | 0.00 | 39 | 1013.3 |
| 20260905215140 | 33 | 329 | 1.6 | 6.4 | 0.00 | 0.00 | 0.00 | 38 | 1013.4 |
| 20260905214638 | 33 | 338 | 1.6 | 6.4 | 0.00 | 0.00 | 0.00 | 38 | 1013.4 |
| 20260905213636 | 33 | 5 | 1.6 | 3.2 | 0.00 | 0.00 | 0.00 | 38 | 1013.4 |
| 20260905212135 | 33 | 286 | 1.6 | 11.3 | 0.00 | 0.00 | 0.00 | 37 | 1013.3 |
| 20260905211634 | 33 | 306 | 1.6 | 11.3 | 0.00 | 0.00 | 0.00 | 37 | 1013.3 |
| 20260905210636 | 33 | 290 | 1.6 | 8.0 | 0.00 | 0.00 | 0.00 | 38 | 1013.2 |
| 20260905210134 | 33 | 52 | 1.6 | 8.0 | 0.00 | 0.00 | 0.00 | 37 | 1013.1 |
| 20260905205633 | 33 | 277 | 0.0 | 0.0 | 0.00 | 0.00 | 0.00 | 37 | 1013.2 |
| 20260905205131 | 33 | 277 | 0.0 | 1.6 | 0.00 | 0.00 | 0.00 | 37 | 1013.2 |
| 20260905204632 | 33 | 268 | 0.0 | 1.6 | 0.00 | 0.00 | 0.00 | 36 | 1013.3 |
| 20260905203635 | 33 | 261 | 1.6 | 6.4 | 0.00 | 0.00 | 0.00 | 35 | 1013.3 |
| 20260905203130 | 33 | 318 | 1.6 | 6.4 | 0.00 | 0.00 | 0.00 | 36 | 1013.3 |
| 20260905201628 | 33 | 321 | 1.6 | 8.0 | 0.00 | 0.00 | 0.00 | 34 | 1013.8 |
| 20260905201123 | 33 | 293 | 1.6 | 4.8 | 0.00 | 0.00 | 0.00 | 36 | 1013.9 |
| 20260905200615 | 33 | 17 | 0.0 | 4.8 | 0.00 | 0.00 | 0.00 | 36 | 1013.9 |
| 20260905200114 | 33 | 88 | 0.0 | 3.2 | 0.00 | 0.00 | 0.00 | 38 | 1013.9 |
| 20260905195614 | 33 | 88 | 0.0 | 3.2 | 0.00 | 0.00 | 0.00 | 37 | 1014.1 |
| 20260905195112 | 33 | 82 | 0.0 | 0.0 | 0.00 | 0.00 | 0.00 | 37 | 1014.2 |
| 20260905194610 | 33 | 82 | 0.0 | 3.2 | 0.00 | 0.00 | 0.00 | 38 | 1014.2 |
| 20260905194108 | 33 | 82 | 0.0 | 3.2 | 0.00 | 0.00 | 0.00 | 38 | 1014.4 |
| 20260905193610 | 33 | 252 | 1.6 | 4.8 | 0.00 | 0.00 | 0.00 | 39 | 1014.5 |
| 20260905193108 | 33 | 252 | 1.6 | 4.8 | 0.00 | 0.00 | 0.00 | 37 | 1014.5 |
| 20260905192107 | 33 | 89 | 1.6 | 11.3 | 0.00 | 0.00 | 0.00 | 36 | 1014.5 |
| 20260905191105 | 33 | 148 | 0.0 | 6.4 | 0.00 | 0.00 | 0.00 | 37 | 1014.7 |
| 20260905190602 | 33 | 117 | 0.0 | 1.6 | 0.00 | 0.00 | 0.00 | 39 | 1014.7 |
| 20260905185603 | 33 | 117 | 0.0 | 4.8 | 0.00 | 0.00 | 0.00 | 40 | 1014.8 |
| 20260905185100 | 33 | 117 | 0.0 | 4.8 | 0.00 | 0.00 | 0.00 | 40 | 1014.8 |
| 20260905184601 | 33 | 115 | 0.0 | 4.8 | 0.00 | 0.00 | 0.00 | 39 | 1014.9 |
| 20260905184101 | 33 | 120 | 1.6 | 8.0 | 0.00 | 0.00 | 0.00 | 40 | 1015.0 |
| 20260905183606 | 33 | 121 | 1.6 | 8.0 | 0.00 | 0.00 | 0.00 | 40 | 1015.0 |
| 20260905183102 | 33 | 107 | 0.0 | 3.2 | 0.00 | 0.00 | 0.00 | 40 | 1015.0 |
| 20260905182558 | 33 | 106 | 1.6 | 3.2 | 0.00 | 0.00 | 0.00 | 40 | 1015.2 |
| 20260905182052 | 33 | 106 | 1.6 | 6.4 | 0.00 | 0.00 | 0.00 | 39 | 1015.2 |
| 20260905181546 | 33 | 141 | 1.6 | 8.0 | 0.00 | 0.00 | 0.00 | 37 | 1015.3 |
| 20260905181045 | 33 | 68 | 1.6 | 8.0 | 0.00 | 0.00 | 0.00 | 38 | 1015.4 |
| 20260905180047 | 33 | 97 | 1.6 | 4.8 | 0.00 | 0.00 | 0.00 | 39 | 1015.5 |
| 20260905175546 | 33 | 96 | 0.0 | 1.6 | 0.00 | 0.00 | 0.00 | 39 | 1015.5 |
| 20260905175046 | 33 | 115 | 1.6 | 3.2 | 0.00 | 0.00 | 0.00 | 38 | 1015.6 |
| 20260905174544 | 33 | 111 | 1.6 | 3.2 | 0.00 | 0.00 | 0.00 | 37 | 1015.7 |
| 20260905174044 | 33 | 111 | 0.0 | 3.2 | 0.00 | 0.00 | 0.00 | 38 | 1015.7 |
| 20260905173544 | 33 | 147 | 0.0 | 4.8 | 0.00 | 0.00 | 0.00 | 40 | 1015.7 |
| 20260905172542 | 32 | 149 | 1.6 | 6.4 | 0.00 | 0.00 | 0.00 | 38 | 1015.8 |
| 20260905172042 | 32 | 140 | 1.6 | 4.8 | 0.00 | 0.00 | 0.00 | 39 | 1015.9 |
| 20260905171540 | 32 | 113 | 0.0 | 4.8 | 0.00 | 0.00 | 0.00 | 41 | 1015.9 |
| 20260905171038 | 32 | 98 | 1.6 | 6.4 | 0.00 | 0.00 | 0.00 | 43 | 1015.9 |
| 20260905170042 | 32 | 105 | 1.6 | 4.8 | 0.00 | 0.00 | 0.00 | 40 | 1016.0 |
| 20260905165538 | 31 | 86 | 1.6 | 6.4 | 0.00 | 0.00 | 0.00 | 42 | 1016.1 |
| 20260905164536 | 31 | 117 | 1.6 | 4.8 | 0.00 | 0.00 | 0.00 | 44 | 1015.9 |
| 20260905164030 | 31 | 63 | 1.6 | 4.8 | 0.00 | 0.00 | 0.00 | 43 | 1015.8 |
| 20260905163529 | 31 | 105 | 1.6 | 4.8 | 0.00 | 0.00 | 0.00 | 43 | 1015.9 |
| 20260905163029 | 31 | 112 | 1.6 | 4.8 | 0.00 | 0.00 | 0.00 | 46 | 1015.9 |
| 20260905162030 | 30 | 110 | 1.6 | 4.8 | 0.00 | 0.00 | 0.00 | 47 | 1016.0 |
| 20260905161529 | 30 | 103 | 1.6 | 4.8 | 0.00 | 0.00 | 0.00 | 46 | 1016.0 |
| 20260905161029 | 30 | 117 | 1.6 | 4.8 | 0.00 | 0.00 | 0.00 | 47 | 1016.1 |
| 20260905160529 | 30 | 67 | 1.6 | 4.8 | 0.00 | 0.00 | 0.00 | 47 | 1016.2 |
| 20260905160029 | 29 | 99 | 1.6 | 8.0 | 0.00 | 0.00 | 0.00 | 48 | 1016.2 |
| 20260905155529 | 29 | 157 | 1.6 | 8.0 | 0.00 | 0.00 | 0.00 | 47 | 1016.3 |
| 20260905155029 | 29 | 111 | 1.6 | 4.8 | 0.00 | 0.00 | 0.00 | 49 | 1016.4 |
| 20260905154529 | 28 | 102 | 1.6 | 4.8 | 0.00 | 0.00 | 0.00 | 51 | 1016.5 |
| 20260905154035 | 28 | 154 | 1.6 | 4.8 | 0.00 | 0.00 | 0.00 | 50 | 1016.5 |
| 20260905153529 | 28 | 123 | 1.6 | 4.8 | 0.00 | 0.00 | 0.00 | 52 | 1016.5 |
| 20260905152529 | 27 | 130 | 1.6 | 6.4 | 0.00 | 0.00 | 0.00 | 53 | 1016.8 |
| 20260905152028 | 27 | 102 | 1.6 | 4.8 | 0.00 | 0.00 | 0.00 | 53 | 1016.7 |
| 20260905151028 | 26 | 57 | 3.2 | 8.0 | 0.00 | 0.00 | 0.00 | 54 | 1016.7 |
| 20260905150527 | 26 | 79 | 1.6 | 8.0 | 0.00 | 0.00 | 0.00 | 54 | 1016.9 |
| 20260905150028 | 26 | 58 | 1.6 | 4.8 | 0.00 | 0.00 | 0.00 | 54 | 1016.9 |
| 20260905145527 | 26 | 132 | 1.6 | 4.8 | 0.00 | 0.00 | 0.00 | 54 | 1017.0 |
| 20260905144527 | 25 | 149 | 1.6 | 6.4 | 0.00 | 0.00 | 0.00 | 54 | 1017.0 |
| 20260905144026 | 25 | 83 | 1.6 | 6.4 | 0.00 | 0.00 | 0.00 | 54 | 1017.0 |
| 20260905143527 | 24 | 94 | 1.6 | 9.7 | 0.00 | 0.00 | 0.00 | 53 | 1017.1 |
| 20260905143024 | 24 | 123 | 3.2 | 9.7 | 0.00 | 0.00 | 0.00 | 52 | 1017.2 |
| 20260905142525 | 23 | 79 | 3.2 | 6.4 | 0.00 | 0.00 | 0.00 | 52 | 1017.1 |
| 20260905141524 | 23 | 66 | 1.6 | 6.4 | 0.00 | 0.00 | 0.00 | 52 | 1017.4 |
| 20260905141023 | 22 | 79 | 1.6 | 6.4 | 0.00 | 0.00 | 0.00 | 53 | 1017.4 |
| 20260905140524 | 22 | 78 | 3.2 | 6.4 | 0.00 | 0.00 | 0.00 | 53 | 1017.4 |
| 20260905140023 | 22 | 101 | 1.6 | 8.0 | 0.00 | 0.00 | 0.00 | 53 | 1017.2 |
| 20260905135524 | 22 | 61 | 1.6 | 8.0 | 0.00 | 0.00 | 0.00 | 53 | 1017.5 |
| 20260905135024 | 22 | 130 | 0.0 | 4.8 | 0.00 | 0.00 | 0.00 | 54 | 1017.5 |
| 20260905134524 | 21 | 59 | 1.6 | 4.8 | 0.00 | 0.00 | 0.00 | 54 | 1017.5 |
| 20260905134024 | 21 | 59 | 1.6 | 8.0 | 0.00 | 0.00 | 0.00 | 54 | 1017.2 |
| 20260905133519 | 21 | 59 | 1.6 | 8.0 | 0.00 | 0.00 | 0.00 | 54 | 1017.5 |
| 20260905133020 | 21 | 82 | 1.6 | 8.0 | 0.00 | 0.00 | 0.00 | 54 | 1017.6 |
| 20260905132520 | 21 | 63 | 3.2 | 9.7 | 0.00 | 0.00 | 0.00 | 54 | 1017.8 |
| 20260905131520 | 21 | 83 | 1.6 | 6.4 | 0.00 | 0.00 | 0.00 | 54 | 1018.0 |
| 20260905131027 | 21 | 61 | 3.2 | 14.5 | 0.00 | 0.00 | 0.00 | 54 | 1017.8 |
| 20260905130527 | 22 | 59 | 3.2 | 17.7 | 0.00 | 0.00 | 0.00 | 55 | 1017.9 |
| 20260905130027 | 22 | 168 | 3.2 | 17.7 | 0.00 | 0.00 | 0.00 | 55 | 1018.0 |
| 20260905125023 | 22 | 61 | 1.6 | 9.7 | 0.00 | 0.00 | 0.00 | 57 | 1018.1 |
| 20260905124523 | 22 | 245 | 3.2 | 11.3 | 0.00 | 0.00 | 0.00 | 57 | 1018.0 |
| 20260905124022 | 22 | 144 | 3.2 | 11.3 | 0.00 | 0.00 | 0.00 | 58 | 1017.6 |
| 20260905123517 | 22 | 63 | 1.6 | 9.7 | 0.00 | 0.00 | 0.00 | 58 | 1017.7 |
| 20260905123018 | 22 | 68 | 1.6 | 27.4 | 0.00 | 0.00 | 0.00 | 58 | 1017.9 |
| 20260905122518 | 22 | 226 | 1.6 | 27.4 | 0.00 | 0.00 | 0.00 | 57 | 1018.2 |
| 20260905122018 | 22 | 277 | 1.6 | 4.8 | 0.00 | 0.00 | 0.00 | 57 | 1017.6 |
| 20260905121517 | 23 | 215 | 0.0 | 4.8 | 0.00 | 0.00 | 0.00 | 57 | 1017.6 |
| 20260905121016 | 23 | 286 | 0.0 | 0.0 | 0.00 | 0.00 | 0.00 | 57 | 1017.6 |
| 20260905120516 | 23 | 286 | 0.0 | 1.6 | 0.00 | 0.00 | 0.00 | 56 | 1017.4 |
| 20260905120016 | 23 | 286 | 0.0 | 3.2 | 0.00 | 0.00 | 0.00 | 56 | 1017.4 |
| 20260905115516 | 23 | 286 | 1.6 | 12.9 | 0.00 | 0.00 | 0.00 | 56 | 1017.1 |
| 20260905115016 | 23 | 339 | 3.2 | 12.9 | 0.00 | 0.00 | 0.00 | 55 | 1017.6 |
| 20260905114515 | 23 | 261 | 3.2 | 12.9 | 0.00 | 0.00 | 0.00 | 55 | 1017.5 |
| 20260905113515 | 24 | 309 | 4.8 | 17.7 | 0.00 | 0.00 | 0.00 | 54 | 1017.1 |
| 20260905113017 | 24 | 304 | 6.4 | 17.7 | 0.00 | 0.00 | 0.00 | 54 | 1017.4 |
| 20260905112518 | 24 | 244 | 4.8 | 14.5 | 0.00 | 0.00 | 0.00 | 54 | 1016.9 |
| 20260905112015 | 24 | 263 | 4.8 | 14.5 | 0.00 | 0.00 | 0.00 | 54 | 1017.0 |
| 20260905111015 | 24 | 291 | 4.8 | 22.5 | 0.00 | 0.00 | 0.00 | 53 | 1016.6 |
| 20260905110516 | 24 | 283 | 4.8 | 22.5 | 0.00 | 0.00 | 0.00 | 52 | 1016.6 |
| 20260905110014 | 23 | 267 | 3.2 | 16.1 | 0.00 | 0.00 | 0.00 | 51 | 1016.7 |
| 20260905105513 | 23 | 283 | 1.6 | 16.1 | 0.00 | 0.00 | 0.00 | 52 | 1016.4 |
| 20260905105010 | 23 | 238 | 0.0 | 0.0 | 0.00 | 0.00 | 0.00 | 53 | 1015.3 |
| 20260905104507 | 23 | 238 | 0.0 | 0.0 | 0.00 | 0.00 | 0.00 | 53 | 1015.2 |
| 20260905104006 | 23 | 238 | 0.0 | 0.0 | 0.00 | 0.00 | 0.00 | 54 | 1015.1 |
| 20260905103506 | 23 | 238 | 0.0 | 0.0 | 0.00 | 0.00 | 0.00 | 54 | 1015.2 |
| 20260905103006 | 23 | 238 | 0.0 | 0.0 | 0.00 | 0.00 | 0.00 | 54 | 1015.0 |
| 20260905102504 | 23 | 238 | 0.0 | 0.0 | 0.00 | 0.00 | 0.00 | 55 | 1014.9 |
| 20260905102007 | 23 | 238 | 0.0 | 0.0 | 0.00 | 0.00 | 0.00 | 55 | 1015.0 |
| 20260905101508 | 23 | 238 | 0.0 | 0.0 | 0.00 | 0.00 | 0.00 | 55 | 1015.1 |
| 20260905101006 | 23 | 238 | 0.0 | 0.0 | 0.00 | 0.00 | 0.00 | 55 | 1015.2 |
| 20260905100502 | 23 | 238 | 0.0 | 0.0 | 0.00 | 0.00 | 0.00 | 54 | 1015.3 |
| 20260905100001 | 23 | 238 | 0.0 | 0.0 | 0.00 | 0.00 | 0.00 | 55 | 1015.3 |
| 20260905095000 | 23 | 238 | 0.0 | 0.0 | 0.00 | 0.00 | 0.00 | 55 | 1015.3 |
| 20260905094458 | 23 | 238 | 0.0 | 0.0 | 0.00 | 0.00 | 0.00 | 55 | 1015.2 |
| 20260905093955 | 23 | 238 | 0.0 | 0.0 | 0.00 | 0.00 | 0.00 | 55 | 1015.2 |
| 20260905093454 | 23 | 238 | 0.0 | 0.0 | 0.00 | 0.00 | 0.00 | 55 | 1015.2 |
| 20260905092949 | 23 | 238 | 0.0 | 0.0 | 0.00 | 0.00 | 0.00 | 55 | 1015.1 |
| 20260905092450 | 23 | 238 | 0.0 | 0.0 | 0.00 | 0.00 | 0.00 | 55 | 1015.1 |
| 20260905091948 | 23 | 238 | 0.0 | 0.0 | 0.00 | 0.00 | 0.00 | 55 | 1015.1 |
| 20260905091444 | 23 | 238 | 0.0 | 0.0 | 0.00 | 0.00 | 0.00 | 55 | 1015.1 |
| 20260905090944 | 23 | 238 | 0.0 | 0.0 | 0.00 | 0.00 | 0.00 | 55 | 1015.2 |
| 20260905090443 | 23 | 238 | 0.0 | 0.0 | 0.00 | 0.00 | 0.00 | 55 | 1015.2 |
| 20260905085939 | 23 | 238 | 0.0 | 0.0 | 0.00 | 0.00 | 0.00 | 55 | 1015.1 |
| 20260905085437 | 23 | 238 | 0.0 | 0.0 | 0.00 | 0.00 | 0.00 | 55 | 1015.1 |
| 20260905084936 | 23 | 238 | 0.0 | 0.0 | 0.00 | 0.00 | 0.00 | 55 | 1015.1 |
| 20260905084433 | 24 | 238 | 0.0 | 0.0 | 0.00 | 0.00 | 0.00 | 55 | 1015.0 |
| 20260905083430 | 24 | 238 | 0.0 | 0.0 | 0.00 | 0.00 | 0.00 | 56 | 1015.0 |
| 20260905082929 | 24 | 238 | 0.0 | 0.0 | 0.00 | 0.00 | 0.00 | 56 | 1015.0 |
| 20260905081929 | 24 | 238 | 0.0 | 0.0 | 0.00 | 0.00 | 0.00 | 56 | 1014.9 |
| 20260905080925 | 24 | 238 | 0.0 | 0.0 | 0.00 | 0.00 | 0.00 | 57 | 1014.9 |
| 20260905080430 | 24 | 238 | 0.0 | 0.0 | 0.00 | 0.00 | 0.00 | 57 | 1015.0 |
| 20260905075930 | 24 | 238 | 0.0 | 0.0 | 0.00 | 0.00 | 0.00 | 57 | 1015.0 |
| 20260905075424 | 24 | 238 | 0.0 | 0.0 | 0.00 | 0.00 | 0.00 | 57 | 1015.1 |
| 20260905074919 | 24 | 238 | 0.0 | 0.0 | 0.00 | 0.00 | 0.00 | 58 | 1015.1 |
| 20260905074417 | 24 | 238 | 0.0 | 0.0 | 0.00 | 0.00 | 0.00 | 58 | 1015.0 |
| 20260905073915 | 24 | 238 | 0.0 | 0.0 | 0.00 | 0.00 | 0.00 | 58 | 1015.1 |
| 20260905073415 | 24 | 238 | 0.0 | 0.0 | 0.00 | 0.00 | 0.00 | 58 | 1015.1 |
| 20260905072913 | 24 | 238 | 0.0 | 0.0 | 0.00 | 0.00 | 0.00 | 58 | 1015.2 |
| 20260905072413 | 24 | 238 | 0.0 | 0.0 | 0.00 | 0.00 | 0.00 | 58 | 1015.3 |
| 20260905071913 | 24 | 238 | 0.0 | 0.0 | 0.00 | 0.00 | 0.00 | 58 | 1015.3 |
| 20260905071418 | 24 | 238 | 0.0 | 0.0 | 0.00 | 0.00 | 0.00 | 58 | 1015.4 |
| 20260905070920 | 24 | 238 | 0.0 | 0.0 | 0.00 | 0.00 | 0.00 | 58 | 1015.3 |
| 20260905070421 | 24 | 238 | 0.0 | 0.0 | 0.00 | 0.00 | 0.00 | 58 | 1015.4 |
| 20260905065913 | 24 | 238 | 0.0 | 0.0 | 0.00 | 0.00 | 0.00 | 59 | 1015.5 |
| 20260905065412 | 24 | 238 | 0.0 | 0.0 | 0.00 | 0.00 | 0.00 | 59 | 1015.5 |
| 20260905064912 | 24 | 238 | 0.0 | 0.0 | 0.00 | 0.00 | 0.00 | 59 | 1015.6 |
| 20260905064412 | 24 | 238 | 0.0 | 0.0 | 0.00 | 0.00 | 0.00 | 59 | 1015.6 |
| 20260905063400 | 24 | 238 | 0.0 | 0.0 | 0.00 | 0.00 | 0.00 | 59 | 1015.8 |
| 20260905062348 | 25 | 238 | 0.0 | 0.0 | 0.00 | 0.00 | 0.00 | 59 | 1016.0 |
| 20260905061337 | 25 | 238 | 0.0 | 0.0 | 0.00 | 0.00 | 0.00 | 59 | 1016.1 |
| 20260905060823 | 25 | 238 | 0.0 | 0.0 | 0.00 | 0.00 | 0.00 | 60 | 1016.1 |
| 20260905060322 | 25 | 238 | 0.0 | 0.0 | 0.00 | 0.00 | 0.00 | 60 | 1016.2 |
| 20260905055812 | 25 | 238 | 0.0 | 0.0 | 0.00 | 0.00 | 0.00 | 60 | 1016.2 |
| 20260905055306 | 25 | 238 | 0.0 | 0.0 | 0.00 | 0.00 | 0.00 | 60 | 1016.3 |
| 20260905054809 | 25 | 238 | 0.0 | 0.0 | 0.00 | 0.00 | 0.00 | 60 | 1016.4 |
| 20260905054301 | 25 | 238 | 0.0 | 0.0 | 0.00 | 0.00 | 0.00 | 60 | 1016.4 |
| 20260905053801 | 25 | 238 | 0.0 | 0.0 | 0.00 | 0.00 | 0.00 | 60 | 1016.5 |
| 20260905052802 | 25 | 238 | 0.0 | 0.0 | 0.00 | 0.00 | 0.00 | 60 | 1016.5 |